"Sample Date","Sample Time","Sample Value","Units","Flow Rate","Number Channels","Micron Size 0","Counts/Channel 0","Micron Size 1","Counts/Channel 1","Micron Size 2","Counts/Channel 2","Micron Size 3","Counts/Channel 3","Micron Size 4","Counts/Channel 4","Micron Size 5","Counts/Channel 5","Micron Size 6","Counts/Channel 6","Micron Size 7","Counts/Channel 7","Micron Size 8","Counts/Channel 8","Micron Size 9","Counts/Channel 9","Micron Size 10","Counts/Channel 10","Micron Size 11","Counts/Channel 11","Micron Size 12","Counts/Channel 12","Micron Size 13","Counts/Channel 13","Micron Size 14","Counts/Channel 14","Micron Size 15","Counts/Channel 15","Micron Size 16","Counts/Channel 16","Micron Size 17","Counts/Channel 17","Micron Size 18","Counts/Channel 18","Micron Size 19","Counts/Channel 19","Micron Size 20","Counts/Channel 20","Micron Size 21","Counts/Channel 21","Micron Size 22","Counts/Channel 22","Micron Size 23","Counts/Channel 23","Micron Size 24","Counts/Channel 24","Micron Size 25","Counts/Channel 25","Micron Size 26","Counts/Channel 26","Micron Size 27","Counts/Channel 27","Micron Size 28","Counts/Channel 28","Micron Size 29","Counts/Channel 29","Micron Size 30","Counts/Channel 30","Micron Size 31","Counts/Channel 31"
"05/12/08","21:00:05",16824.000,"cc",28289.100,6,0.100,14406.000,0.200,2282.000,0.300,123.000,0.500,13.000,1.000,0,5.000,0
"05/12/08","21:00:11",23544.000,"cc",28403.025,6,0.100,20262.000,0.200,3124.000,0.300,146.000,0.500,11.000,1.000,1.000,5.000,0
"05/12/08","21:00:17",18676.000,"cc",28306.811,6,0.100,16056.000,0.200,2483.000,0.300,127.000,0.500,9.000,1.000,1.000,5.000,0
"05/12/08","21:00:23",19448.000,"cc",28314.596,6,0.100,16747.000,0.200,2572.000,0.300,125.000,0.500,4.000,1.000,0,5.000,0
"05/12/08","21:00:29",13462.000,"cc",28336.363,6,0.100,11589.000,0.200,1772.000,0.300,97.000,0.500,4.000,1.000,0,5.000,0
"05/12/08","21:00:35",15541.000,"cc",28293.998,6,0.100,13375.000,0.200,2064.000,0.300,93.000,0.500,9.000,1.000,0,5.000,0
"05/12/08","21:00:41",14866.000,"cc",28308.162,6,0.100,12682.000,0.200,2075.000,0.300,101.000,0.500,8.000,1.000,0,5.000,0
"05/12/08","21:00:47",12670.000,"cc",28286.953,6,0.100,10879.000,0.200,1713.000,0.300,74.000,0.500,3.000,1.000,1.000,5.000,0
"05/12/08","21:00:53",15184.000,"cc",28322.145,6,0.100,13084.000,0.200,1993.000,0.300,99.000,0.500,6.000,1.000,2.000,5.000,0
"05/12/08","21:00:59",13466.000,"cc",28339.975,6,0.100,11605.000,0.200,1754.000,0.300,98.000,0.500,8.000,1.000,1.000,5.000,0
"05/12/08","21:01:05",11384.000,"cc",28312.828,6,0.100,9784.000,0.200,1503.000,0.300,88.000,0.500,9.000,1.000,0,5.000,0
"05/12/08","21:01:11",12904.000,"cc",28301.523,6,0.100,10994.000,0.200,1795.000,0.300,110.000,0.500,5.000,1.000,0,5.000,0
"05/12/08","21:01:17",18667.000,"cc",28386.371,6,0.100,16063.000,0.200,2456.000,0.300,133.000,0.500,15.000,1.000,0,5.000,0
"05/12/08","21:01:23",18525.000,"cc",28302.613,6,0.100,15956.000,0.200,2421.000,0.300,138.000,0.500,9.000,1.000,1.000,5.000,0
"05/12/08","21:01:29",11377.000,"cc",28251.758,6,0.100,9797.000,0.200,1496.000,0.300,75.000,0.500,9.000,1.000,0,5.000,0
"05/12/08","21:01:35",10931.000,"cc",28297.680,6,0.100,9351.000,0.200,1475.000,0.300,96.000,0.500,9.000,1.000,0,5.000,0
"05/12/08","21:01:41",9433.000,"cc",28354.883,6,0.100,8039.000,0.200,1327.000,0.300,58.000,0.500,9.000,1.000,0,5.000,0
"05/12/08","21:01:47",14723.000,"cc",28314.402,6,0.100,12653.000,0.200,1950.000,0.300,107.000,0.500,12.000,1.000,1.000,5.000,0
"05/12/08","21:01:53",10779.000,"cc",28353.982,6,0.100,9115.000,0.200,1557.000,0.300,100.000,0.500,7.000,1.000,0,5.000,0
"05/12/08","21:01:59",11802.000,"cc",28296.908,6,0.100,10120.000,0.200,1576.000,0.300,95.000,0.500,11.000,1.000,0,5.000,0
"05/12/08","21:02:05",11311.000,"cc",28270.873,6,0.100,9655.000,0.200,1562.000,0.300,89.000,0.500,5.000,1.000,0,5.000,0
"05/12/08","21:02:11",9246.000,"cc",28303.197,6,0.100,7871.000,0.200,1298.000,0.300,74.000,0.500,3.000,1.000,0,5.000,0
"05/12/08","21:02:17",7923.000,"cc",28316.705,6,0.100,6738.000,0.200,1106.000,0.300,75.000,0.500,4.000,1.000,0,5.000,0
"05/12/08","21:02:23",8468.000,"cc",28319.752,6,0.100,7254.000,0.200,1144.000,0.300,61.000,0.500,8.000,1.000,1.000,5.000,0
"05/12/08","21:02:29",12352.000,"cc",28329.488,6,0.100,10617.000,0.200,1632.000,0.300,98.000,0.500,5.000,1.000,0,5.000,0
"05/12/08","21:02:35",15854.000,"cc",28331.664,6,0.100,13671.000,0.200,2075.000,0.300,99.000,0.500,9.000,1.000,0,5.000,0
"05/12/08","21:02:41",10191.000,"cc",28290.684,6,0.100,8785.000,0.200,1322.000,0.300,81.000,0.500,3.000,1.000,0,5.000,0
"05/12/08","21:02:47",11877.000,"cc",28293.990,6,0.100,10220.000,0.200,1558.000,0.300,92.000,0.500,7.000,1.000,0,5.000,0
"05/12/08","21:02:53",10089.000,"cc",28301.426,6,0.100,8592.000,0.200,1388.000,0.300,99.000,0.500,10.000,1.000,0,5.000,0
"05/12/08","21:02:59",8060.000,"cc",28354.256,6,0.100,6890.000,0.200,1100.000,0.300,66.000,0.500,4.000,1.000,0,5.000,0
"05/12/08","21:03:05",12092.000,"cc",28318.787,6,0.100,10369.000,0.200,1639.000,0.300,78.000,0.500,6.000,1.000,0,5.000,0
"05/12/08","21:03:11",12705.000,"cc",28339.490,6,0.100,10954.000,0.200,1661.000,0.300,78.000,0.500,10.000,1.000,2.000,5.000,0
"05/12/08","21:03:17",13012.000,"cc",28290.303,6,0.100,11209.000,0.200,1713.000,0.300,83.000,0.500,7.000,1.000,0,5.000,0
"05/12/08","21:03:23",25978.000,"cc",28276.611,6,0.100,22552.000,0.200,3252.000,0.300,161.000,0.500,12.000,1.000,1.000,5.000,0
"05/12/08","21:03:29",17539.000,"cc",28361.627,6,0.100,15132.000,0.200,2271.000,0.300,126.000,0.500,9.000,1.000,1.000,5.000,0
"05/12/08","21:03:35",10775.000,"cc",28305.574,6,0.100,9250.000,0.200,1440.000,0.300,78.000,0.500,7.000,1.000,0,5.000,0
"05/12/08","21:03:41",19383.000,"cc",28290.973,6,0.100,16698.000,0.200,2545.000,0.300,129.000,0.500,11.000,1.000,0,5.000,0
"05/12/08","21:03:47",29070.000,"cc",28322.584,6,0.100,25178.000,0.200,3702.000,0.300,176.000,0.500,13.000,1.000,1.000,5.000,0
"05/12/08","21:03:53",17447.000,"cc",28297.025,6,0.100,15009.000,0.200,2304.000,0.300,125.000,0.500,9.000,1.000,0,5.000,0
"05/12/08","21:03:59",17562.000,"cc",28344.676,6,0.100,15119.000,0.200,2311.000,0.300,121.000,0.500,11.000,1.000,0,5.000,0
"05/12/08","21:04:05",19271.000,"cc",28306.785,6,0.100,16589.000,0.200,2558.000,0.300,114.000,0.500,9.000,1.000,1.000,5.000,0
"05/12/08","21:04:11",13096.000,"cc",28372.906,6,0.100,11272.000,0.200,1733.000,0.300,83.000,0.500,7.000,1.000,1.000,5.000,0
"05/12/08","21:04:17",9854.000,"cc",28268.115,6,0.100,8422.000,0.200,1350.000,0.300,81.000,0.500,1.000,1.000,0,5.000,0
"05/12/08","21:04:23",13543.000,"cc",28264.965,6,0.100,11710.000,0.200,1743.000,0.300,88.000,0.500,2.000,1.000,0,5.000,0
"05/12/08","21:04:29",17725.000,"cc",28305.916,6,0.100,15231.000,0.200,2365.000,0.300,119.000,0.500,10.000,1.000,0,5.000,0
"05/12/08","21:04:35",11622.000,"cc",28358.471,6,0.100,9983.000,0.200,1550.000,0.300,79.000,0.500,10.000,1.000,0,5.000,0
"05/12/08","21:04:41",11468.000,"cc",28388.191,6,0.100,9882.000,0.200,1504.000,0.300,75.000,0.500,6.000,1.000,1.000,5.000,0
"05/12/08","21:04:47",11522.000,"cc",28271.504,6,0.100,9949.000,0.200,1511.000,0.300,54.000,0.500,8.000,1.000,0,5.000,0
"05/12/08","21:04:53",12017.000,"cc",28292.996,6,0.100,10326.000,0.200,1603.000,0.300,83.000,0.500,5.000,1.000,0,5.000,0
"05/12/08","21:04:59",13031.000,"cc",28322.861,6,0.100,11226.000,0.200,1705.000,0.300,87.000,0.500,13.000,1.000,0,5.000,0
"05/12/08","21:05:05",15935.000,"cc",28307.467,6,0.100,13716.000,0.200,2106.000,0.300,108.000,0.500,5.000,1.000,0,5.000,0
"05/12/08","21:05:11",17141.000,"cc",28332.313,6,0.100,14819.000,0.200,2195.000,0.300,116.000,0.500,11.000,1.000,0,5.000,0
"05/12/08","21:05:17",9350.000,"cc",28280.557,6,0.100,8046.000,0.200,1228.000,0.300,66.000,0.500,10.000,1.000,0,5.000,0
"05/12/08","21:05:23",6872.000,"cc",28355.379,6,0.100,5867.000,0.200,942.000,0.300,58.000,0.500,5.000,1.000,0,5.000,0
"05/12/08","21:05:29",9367.000,"cc",28272.236,6,0.100,8050.000,0.200,1243.000,0.300,69.000,0.500,5.000,1.000,0,5.000,0
"05/12/08","21:05:35",15083.000,"cc",28298.709,6,0.100,12958.000,0.200,2025.000,0.300,91.000,0.500,9.000,1.000,0,5.000,0
"05/12/08","21:05:41",11064.000,"cc",28316.074,6,0.100,9521.000,0.200,1440.000,0.300,95.000,0.500,8.000,1.000,0,5.000,0
"05/12/08","21:05:47",12824.000,"cc",28343.789,6,0.100,11062.000,0.200,1653.000,0.300,101.000,0.500,7.000,1.000,1.000,5.000,0
"05/12/08","21:05:53",13585.000,"cc",28291.055,6,0.100,11811.000,0.200,1688.000,0.300,77.000,0.500,9.000,1.000,0,5.000,0
"05/12/08","21:05:59",16659.000,"cc",28351.863,6,0.100,14307.000,0.200,2227.000,0.300,117.000,0.500,7.000,1.000,1.000,5.000,0
"05/12/08","21:06:05",25995.000,"cc",28346.402,6,0.100,22405.000,0.200,3446.000,0.300,131.000,0.500,13.000,1.000,0,5.000,0
"05/12/08","21:06:11",28820.000,"cc",28369.272,6,0.100,24915.000,0.200,3733.000,0.300,163.000,0.500,9.000,1.000,0,5.000,0
"05/12/08","21:06:17",16221.000,"cc",28238.588,6,0.100,14030.000,0.200,2065.000,0.300,116.000,0.500,8.000,1.000,2.000,5.000,0
"05/12/08","21:06:23",11855.000,"cc",28253.285,6,0.100,10171.000,0.200,1576.000,0.300,99.000,0.500,8.000,1.000,1.000,5.000,0
"05/12/08","21:06:29",17900.000,"cc",28294.656,6,0.100,15462.000,0.200,2318.000,0.300,113.000,0.500,6.000,1.000,1.000,5.000,0
"05/12/08","21:06:35",15013.000,"cc",28301.299,6,0.100,12993.000,0.200,1902.000,0.300,111.000,0.500,6.000,1.000,1.000,5.000,0
"05/12/08","21:06:41",9269.000,"cc",28357.555,6,0.100,7901.000,0.200,1259.000,0.300,99.000,0.500,8.000,1.000,2.000,5.000,0
"05/12/08","21:06:47",8182.000,"cc",28356.092,6,0.100,6971.000,0.200,1127.000,0.300,74.000,0.500,9.000,1.000,1.000,5.000,0
"05/12/08","21:06:53",16656.000,"cc",28328.334,6,0.100,14373.000,0.200,2180.000,0.300,96.000,0.500,7.000,1.000,0,5.000,0
"05/12/08","21:06:59",15090.000,"cc",28288.875,6,0.100,12959.000,0.200,2035.000,0.300,93.000,0.500,3.000,1.000,0,5.000,0
"05/12/08","21:07:05",11145.000,"cc",28353.285,6,0.100,9569.000,0.200,1487.000,0.300,81.000,0.500,8.000,1.000,0,5.000,0
"05/12/08","21:07:11",22654.000,"cc",28332.133,6,0.100,19572.000,0.200,2948.000,0.300,129.000,0.500,5.000,1.000,0,5.000,0
"05/12/08","21:07:17",13663.000,"cc",28312.438,6,0.100,11719.000,0.200,1830.000,0.300,105.000,0.500,9.000,1.000,0,5.000,0
"05/12/08","21:07:23",9916.000,"cc",28334.938,6,0.100,8407.000,0.200,1425.000,0.300,75.000,0.500,9.000,1.000,0,5.000,0
"05/12/08","21:07:29",8752.000,"cc",28289.168,6,0.100,7493.000,0.200,1181.000,0.300,70.000,0.500,7.000,1.000,1.000,5.000,0
"05/12/08","21:07:35",11368.000,"cc",28291.811,6,0.100,9731.000,0.200,1531.000,0.300,97.000,0.500,8.000,1.000,1.000,5.000,0
"05/12/08","21:07:41",11639.000,"cc",28386.440,6,0.100,10014.000,0.200,1531.000,0.300,83.000,0.500,9.000,1.000,2.000,5.000,0
"05/12/08","21:07:47",13361.000,"cc",28289.320,6,0.100,11420.000,0.200,1843.000,0.300,89.000,0.500,9.000,1.000,0,5.000,0
"05/12/08","21:07:53",9818.000,"cc",28356.727,6,0.100,8431.000,0.200,1306.000,0.300,64.000,0.500,17.000,1.000,0,5.000,0
"05/12/08","21:07:59",14746.000,"cc",28312.938,6,0.100,12693.000,0.200,1948.000,0.300,92.000,0.500,13.000,1.000,0,5.000,0
"05/12/08","21:08:05",15713.000,"cc",28295.522,6,0.100,13466.000,0.200,2140.000,0.300,100.000,0.500,7.000,1.000,0,5.000,0
"05/12/08","21:08:11",18690.000,"cc",28325.756,6,0.100,16103.000,0.200,2432.000,0.300,142.000,0.500,13.000,1.000,0,5.000,0
"05/12/08","21:08:17",17354.000,"cc",28345.006,6,0.100,14939.000,0.200,2299.000,0.300,109.000,0.500,7.000,1.000,0,5.000,0
"05/12/08","21:08:23",11854.000,"cc",28350.951,6,0.100,10183.000,0.200,1558.000,0.300,105.000,0.500,8.000,1.000,0,5.000,0
"05/12/08","21:08:29",11609.000,"cc",28276.332,6,0.100,9962.000,0.200,1534.000,0.300,105.000,0.500,8.000,1.000,0,5.000,0
"05/12/08","21:08:35",14836.000,"cc",28332.967,6,0.100,12727.000,0.200,2009.000,0.300,96.000,0.500,3.000,1.000,1.000,5.000,0
"05/12/08","21:08:41",14545.000,"cc",28277.623,6,0.100,12502.000,0.200,1932.000,0.300,106.000,0.500,3.000,1.000,2.000,5.000,0
"05/12/08","21:08:47",23173.000,"cc",28298.082,6,0.100,19859.000,0.200,3155.000,0.300,156.000,0.500,3.000,1.000,0,5.000,0
"05/12/08","21:08:53",21393.000,"cc",28348.514,6,0.100,18389.000,0.200,2840.000,0.300,154.000,0.500,10.000,1.000,0,5.000,0
"05/12/08","21:08:59",16728.000,"cc",28289.404,6,0.100,14180.000,0.200,2399.000,0.300,134.000,0.500,15.000,1.000,0,5.000,0
"05/12/08","21:09:05",13853.000,"cc",28322.270,6,0.100,11766.000,0.200,1949.000,0.300,130.000,0.500,8.000,1.000,0,5.000,0
"05/12/08","21:09:11",17971.000,"cc",28353.438,6,0.100,15308.000,0.200,2511.000,0.300,145.000,0.500,7.000,1.000,0,5.000,0
"05/12/08","21:09:17",20671.000,"cc",28268.451,6,0.100,17579.000,0.200,2929.000,0.300,153.000,0.500,10.000,1.000,0,5.000,0
"05/12/08","21:09:23",22398.000,"cc",28340.736,6,0.100,19144.000,0.200,3063.000,0.300,174.000,0.500,17.000,1.000,0,5.000,0
"05/12/08","21:09:29",17621.000,"cc",28281.510,6,0.100,15099.000,0.200,2375.000,0.300,137.000,0.500,10.000,1.000,0,5.000,0
"05/12/08","21:09:35",17361.000,"cc",28289.850,6,0.100,14814.000,0.200,2386.000,0.300,149.000,0.500,11.000,1.000,1.000,5.000,0
"05/12/08","21:09:41",12757.000,"cc",28333.297,6,0.100,10937.000,0.200,1734.000,0.300,79.000,0.500,7.000,1.000,0,5.000,0
"05/12/08","21:09:47",11908.000,"cc",28340.984,6,0.100,10173.000,0.200,1657.000,0.300,69.000,0.500,9.000,1.000,0,5.000,0
"05/12/08","21:09:53",11677.000,"cc",28336.482,6,0.100,9969.000,0.200,1598.000,0.300,103.000,0.500,7.000,1.000,0,5.000,0
"05/12/08","21:09:59",19690.000,"cc",28318.857,6,0.100,16872.000,0.200,2672.000,0.300,134.000,0.500,12.000,1.000,0,5.000,0
"05/12/08","21:10:05",13401.000,"cc",28264.457,6,0.100,11457.000,0.200,1814.000,0.300,118.000,0.500,12.000,1.000,0,5.000,0
"05/12/08","21:10:11",13920.000,"cc",28361.229,6,0.100,11814.000,0.200,1978.000,0.300,122.000,0.500,6.000,1.000,0,5.000,0
"05/12/08","21:10:17",12336.000,"cc",28390.815,6,0.100,10445.000,0.200,1770.000,0.300,111.000,0.500,8.000,1.000,2.000,5.000,0
"05/12/08","21:10:23",19568.000,"cc",28307.205,6,0.100,16646.000,0.200,2750.000,0.300,160.000,0.500,11.000,1.000,1.000,5.000,0
"05/12/08","21:10:29",15457.000,"cc",28288.621,6,0.100,13199.000,0.200,2111.000,0.300,139.000,0.500,7.000,1.000,1.000,5.000,0
"05/12/08","21:10:35",15796.000,"cc",28288.867,6,0.100,13534.000,0.200,2123.000,0.300,125.000,0.500,12.000,1.000,2.000,5.000,0
"05/12/08","21:10:41",18940.000,"cc",28261.375,6,0.100,16056.000,0.200,2718.000,0.300,162.000,0.500,4.000,1.000,0,5.000,0
"05/12/08","21:10:47",12775.000,"cc",28305.619,6,0.100,10909.000,0.200,1748.000,0.300,108.000,0.500,10.000,1.000,0,5.000,0
"05/12/08","21:10:53",11822.000,"cc",28321.088,6,0.100,9973.000,0.200,1727.000,0.300,116.000,0.500,5.000,1.000,1.000,5.000,0
"05/12/08","21:10:59",15269.000,"cc",28349.658,6,0.100,12987.000,0.200,2139.000,0.300,138.000,0.500,5.000,1.000,0,5.000,0
"05/12/08","21:11:05",16835.000,"cc",28319.772,6,0.100,14312.000,0.200,2374.000,0.300,138.000,0.500,11.000,1.000,0,5.000,0
"05/12/08","21:11:11",14300.000,"cc",28299.693,6,0.100,12098.000,0.200,2056.000,0.300,139.000,0.500,7.000,1.000,0,5.000,0
"05/12/08","21:11:17",16610.000,"cc",28235.547,6,0.100,14145.000,0.200,2318.000,0.300,135.000,0.500,10.000,1.000,2.000,5.000,0
"05/12/08","21:11:23",13978.000,"cc",28340.830,6,0.100,11899.000,0.200,1958.000,0.300,111.000,0.500,8.000,1.000,2.000,5.000,0
"05/12/08","21:11:29",18369.000,"cc",28322.172,6,0.100,15662.000,0.200,2565.000,0.300,133.000,0.500,8.000,1.000,1.000,5.000,0
"05/12/08","21:11:35",15711.000,"cc",28343.641,6,0.100,13380.000,0.200,2172.000,0.300,147.000,0.500,11.000,1.000,1.000,5.000,0
"05/12/08","21:11:41",34482.000,"cc",28381.260,6,0.100,29388.000,0.200,4812.000,0.300,273.000,0.500,9.000,1.000,0,5.000,0
"05/12/08","21:11:47",37000.000,"cc",28344.949,6,0.100,31613.000,0.200,5073.000,0.300,300.000,0.500,12.000,1.000,2.000,5.000,0
"05/12/08","21:11:53",30044.000,"cc",28362.828,6,0.100,25629.000,0.200,4149.000,0.300,248.000,0.500,16.000,1.000,2.000,5.000,0
"05/12/08","21:11:59",25099.000,"cc",28286.816,6,0.100,21395.000,0.200,3481.000,0.300,215.000,0.500,8.000,1.000,0,5.000,0
"05/12/08","21:12:05",18856.000,"cc",28274.537,6,0.100,16093.000,0.200,2579.000,0.300,174.000,0.500,10.000,1.000,0,5.000,0
"05/12/08","21:12:11",27853.000,"cc",28355.162,6,0.100,23734.000,0.200,3888.000,0.300,228.000,0.500,3.000,1.000,0,5.000,0
"05/12/08","21:12:17",21076.000,"cc",28394.500,6,0.100,17960.000,0.200,2933.000,0.300,176.000,0.500,7.000,1.000,0,5.000,0
"05/12/08","21:12:23",21703.000,"cc",28238.373,6,0.100,18533.000,0.200,2977.000,0.300,184.000,0.500,8.000,1.000,1.000,5.000,0
"05/12/08","21:12:29",22024.000,"cc",28309.672,6,0.100,18881.000,0.200,2960.000,0.300,171.000,0.500,11.000,1.000,1.000,5.000,0
"05/12/08","21:12:35",28289.000,"cc",28270.397,6,0.100,24155.000,0.200,3942.000,0.300,183.000,0.500,9.000,1.000,0,5.000,0
"05/12/08","21:12:41",39030.000,"cc",28303.422,6,0.100,33425.000,0.200,5298.000,0.300,296.000,0.500,11.000,1.000,0,5.000,0
"05/12/08","21:12:47",48297.000,"cc",28311.318,6,0.100,41374.000,0.200,6556.000,0.300,355.000,0.500,12.000,1.000,0,5.000,0
"05/12/08","21:12:53",27192.000,"cc",28324.701,6,0.100,23205.000,0.200,3741.000,0.300,239.000,0.500,6.000,1.000,1.000,5.000,0
"05/12/08","21:12:59",18684.000,"cc",28337.924,6,0.100,15926.000,0.200,2604.000,0.300,147.000,0.500,7.000,1.000,0,5.000,0
"05/12/08","21:13:05",17650.000,"cc",28296.270,6,0.100,14954.000,0.200,2520.000,0.300,164.000,0.500,9.000,1.000,3.000,5.000,0
"05/12/08","21:13:11",12478.000,"cc",28376.473,6,0.100,10639.000,0.200,1716.000,0.300,115.000,0.500,6.000,1.000,2.000,5.000,0
"05/12/08","21:13:17",11701.000,"cc",28335.213,6,0.100,9931.000,0.200,1652.000,0.300,107.000,0.500,11.000,1.000,0,5.000,0
"05/12/08","21:13:23",13343.000,"cc",28304.707,6,0.100,11271.000,0.200,1952.000,0.300,115.000,0.500,5.000,1.000,0,5.000,0
"05/12/08","21:13:29",18526.000,"cc",28296.092,6,0.100,15793.000,0.200,2564.000,0.300,166.000,0.500,3.000,1.000,0,5.000,0
"05/12/08","21:13:35",16235.000,"cc",28287.264,6,0.100,13808.000,0.200,2279.000,0.300,146.000,0.500,2.000,1.000,0,5.000,0
"05/12/08","21:13:41",16528.000,"cc",28355.277,6,0.100,13985.000,0.200,2396.000,0.300,141.000,0.500,6.000,1.000,0,5.000,0
"05/12/08","21:13:47",16298.000,"cc",28300.414,6,0.100,13937.000,0.200,2225.000,0.300,134.000,0.500,2.000,1.000,0,5.000,0
"05/12/08","21:13:53",18536.000,"cc",28346.547,6,0.100,15641.000,0.200,2725.000,0.300,160.000,0.500,10.000,1.000,0,5.000,0
"05/12/08","21:13:59",16513.000,"cc",28243.102,6,0.100,14043.000,0.200,2324.000,0.300,138.000,0.500,8.000,1.000,0,5.000,0
"05/12/08","21:14:05",23354.000,"cc",28398.268,6,0.100,19934.000,0.200,3217.000,0.300,194.000,0.500,9.000,1.000,0,5.000,0
"05/12/08","21:14:11",23760.000,"cc",28323.022,6,0.100,20123.000,0.200,3434.000,0.300,193.000,0.500,10.000,1.000,0,5.000,0
"05/12/08","21:14:17",26120.000,"cc",28262.713,6,0.100,22062.000,0.200,3803.000,0.300,238.000,0.500,16.000,1.000,1.000,5.000,0
"05/12/08","21:14:23",28745.000,"cc",28286.375,6,0.100,24367.000,0.200,4109.000,0.300,255.000,0.500,14.000,1.000,0,5.000,0
"05/12/08","21:14:29",20517.000,"cc",28275.799,6,0.100,17472.000,0.200,2835.000,0.300,206.000,0.500,3.000,1.000,1.000,5.000,0
"05/12/08","21:14:35",31528.000,"cc",28351.465,6,0.100,26714.000,0.200,4517.000,0.300,285.000,0.500,11.000,1.000,1.000,5.000,0
"05/12/08","21:14:41",25918.000,"cc",28416.318,6,0.100,21909.000,0.200,3749.000,0.300,250.000,0.500,10.000,1.000,0,5.000,0
"05/12/08","21:14:47",18034.000,"cc",28279.203,6,0.100,15295.000,0.200,2566.000,0.300,163.000,0.500,7.000,1.000,3.000,5.000,0
"05/12/08","21:14:53",19257.000,"cc",28312.334,6,0.100,16276.000,0.200,2795.000,0.300,181.000,0.500,5.000,1.000,0,5.000,0
"05/12/08","21:14:59",12719.000,"cc",28304.418,6,0.100,10701.000,0.200,1897.000,0.300,112.000,0.500,8.000,1.000,1.000,5.000,0
"05/12/08","21:15:05",12685.000,"cc",28340.277,6,0.100,10681.000,0.200,1877.000,0.300,118.000,0.500,9.000,1.000,0,5.000,0
"05/12/08","21:15:11",14345.000,"cc",28303.063,6,0.100,12110.000,0.200,2084.000,0.300,143.000,0.500,7.000,1.000,1.000,5.000,0
"05/12/08","21:15:17",14950.000,"cc",28353.756,6,0.100,12615.000,0.200,2161.000,0.300,169.000,0.500,4.000,1.000,1.000,5.000,0
"05/12/08","21:15:23",9745.000,"cc",28266.566,6,0.100,8180.000,0.200,1446.000,0.300,113.000,0.500,4.000,1.000,2.000,5.000,0
"05/12/08","21:15:29",11134.000,"cc",28257.283,6,0.100,9360.000,0.200,1606.000,0.300,156.000,0.500,12.000,1.000,0,5.000,0
"05/12/08","21:15:35",9528.000,"cc",28389.578,6,0.100,8016.000,0.200,1403.000,0.300,103.000,0.500,6.000,1.000,0,5.000,0
"05/12/08","21:15:41",7804.000,"cc",28345.967,6,0.100,6500.000,0.200,1222.000,0.300,75.000,0.500,7.000,1.000,0,5.000,0
"05/12/08","21:15:47",8842.000,"cc",28295.963,6,0.100,7421.000,0.200,1293.000,0.300,115.000,0.500,13.000,1.000,0,5.000,0
"05/12/08","21:15:53",11146.000,"cc",28288.711,6,0.100,9322.000,0.200,1694.000,0.300,121.000,0.500,9.000,1.000,0,5.000,0
"05/12/08","21:15:59",8869.000,"cc",28314.291,6,0.100,7490.000,0.200,1262.000,0.300,107.000,0.500,10.000,1.000,0,5.000,0
"05/12/08","21:16:05",10050.000,"cc",28323.207,6,0.100,8404.000,0.200,1525.000,0.300,111.000,0.500,8.000,1.000,2.000,5.000,0
"05/12/08","21:16:11",13190.000,"cc",28324.428,6,0.100,11170.000,0.200,1875.000,0.300,135.000,0.500,8.000,1.000,2.000,5.000,0
"05/12/08","21:16:17",20319.000,"cc",28322.436,6,0.100,17085.000,0.200,3030.000,0.300,194.000,0.500,9.000,1.000,1.000,5.000,0
"05/12/08","21:16:23",26855.000,"cc",28333.990,6,0.100,22802.000,0.200,3785.000,0.300,261.000,0.500,6.000,1.000,1.000,5.000,0
"05/12/08","21:16:29",23121.000,"cc",28309.326,6,0.100,19582.000,0.200,3311.000,0.300,218.000,0.500,10.000,1.000,0,5.000,0
"05/12/08","21:16:35",27368.000,"cc",28326.563,6,0.100,23215.000,0.200,3887.000,0.300,258.000,0.500,6.000,1.000,2.000,5.000,0
"05/12/08","21:16:41",18092.000,"cc",28345.631,6,0.100,15321.000,0.200,2582.000,0.300,178.000,0.500,11.000,1.000,0,5.000,0
"05/12/08","21:16:47",14451.000,"cc",28251.572,6,0.100,12183.000,0.200,2122.000,0.300,143.000,0.500,3.000,1.000,0,5.000,0
"05/12/08","21:16:53",14671.000,"cc",28290.791,6,0.100,12257.000,0.200,2261.000,0.300,140.000,0.500,13.000,1.000,0,5.000,0
"05/12/08","21:16:59",12695.000,"cc",28298.688,6,0.100,10617.000,0.200,1911.000,0.300,160.000,0.500,6.000,1.000,1.000,5.000,0
"05/12/08","21:17:05",23552.000,"cc",28320.916,6,0.100,19883.000,0.200,3414.000,0.300,240.000,0.500,14.000,1.000,1.000,5.000,0
"05/12/08","21:17:11",17694.000,"cc",28359.568,6,0.100,14941.000,0.200,2537.000,0.300,205.000,0.500,8.000,1.000,3.000,5.000,0
"05/12/08","21:17:17",14140.000,"cc",28332.611,6,0.100,11803.000,0.200,2173.000,0.300,158.000,0.500,6.000,1.000,0,5.000,0
"05/12/08","21:17:23",15527.000,"cc",28286.680,6,0.100,12978.000,0.200,2362.000,0.300,175.000,0.500,11.000,1.000,1.000,5.000,0
"05/12/08","21:17:29",20376.000,"cc",28319.305,6,0.100,17149.000,0.200,3004.000,0.300,212.000,0.500,8.000,1.000,3.000,5.000,0
"05/12/08","21:17:35",9984.000,"cc",28329.805,6,0.100,8312.000,0.200,1546.000,0.300,119.000,0.500,7.000,1.000,0,5.000,0
"05/12/08","21:17:41",11366.000,"cc",28349.600,6,0.100,9560.000,0.200,1670.000,0.300,127.000,0.500,7.000,1.000,2.000,5.000,0
"05/12/08","21:17:47",11748.000,"cc",28347.711,6,0.100,9870.000,0.200,1743.000,0.300,126.000,0.500,9.000,1.000,0,5.000,0
"05/12/08","21:17:53",10728.000,"cc",28252.768,6,0.100,8969.000,0.200,1648.000,0.300,100.000,0.500,11.000,1.000,0,5.000,0
"05/12/08","21:17:59",13507.000,"cc",28330.789,6,0.100,11409.000,0.200,1945.000,0.300,145.000,0.500,6.000,1.000,2.000,5.000,0
"05/12/08","21:18:05",13178.000,"cc",28333.180,6,0.100,11104.000,0.200,1947.000,0.300,115.000,0.500,10.000,1.000,2.000,5.000,0
"05/12/08","21:18:11",13392.000,"cc",28306.529,6,0.100,11230.000,0.200,1995.000,0.300,154.000,0.500,12.000,1.000,1.000,5.000,0
"05/12/08","21:18:17",12885.000,"cc",28313.367,6,0.100,10871.000,0.200,1853.000,0.300,146.000,0.500,15.000,1.000,0,5.000,0